Location: Cheyres
(46.8153°N, 6.7877°E)
Time: 00:13:00
(UTC+00:00)

COSMOS 2406 - Pass Details

Date: 11 May 2021
Orbit: 844 x 862 km, 71.0° (Epoch: 23 June)

Event Time Altitude Azimuth Distance (km) Brightness Sun altitude
Rises 19:58:14 0° 336° (NNW) 3,414 7.7 -9.6°
Reaches altitude 10° 20:00:47 10° 342° (NNW) 2,476 6.6 -10.0°
Maximum altitude 20:06:16 48° 56° (ENE) 1,103 3.7 -10.7°
Enters shadow 20:10:49 15° 127° (SE) 2,146 4.6 -11.2°
